Torna al catalogo

STARLINK-37106

AttivoComunicazioniSSO
NORAD 68219·PAYLOAD·🇺🇸 United States

Lanciato Mar 17, 2026 da Vandenberg Space Force Base

Loading…

Prossimi Passaggi (prossime 24 ore)

TLE

AggiornatoSource: CelesTrak SupGP

Epoca: Sep 15, 2026, 03:36 UTC

1 68219C 26053N   26258.15048611  .00022079  00000+0  68533-3 0  2586
2 68219  97.2848 132.0010 0001631  86.2713 264.6171 15.33429655    12

Traccia STARLINK-37106 in tempo reale con AllMySat

Download on the App Store